Location: Whitehorse
(60.7170°N, 135.0500°W)
Time: 17:05:48
(UTC-07:00)

SL-16 R/B - Visible Passes

Search period start: 07 July 2015 00:00
Search period end: 17 July 2015 00:00
Orbit: 840 x 849 km, 71.0° (Epoch: 07 July)

Date Brightness Start Highest point End Pass type
(mag) Time Alt. Az. Time Alt. Az. Time Alt. Az.
07 Jul 2.5 01:46:56 10° NW 01:52:29 55° WSW 01:58:01 10° SSE visible
08 Jul 2.5 01:32:53 10° NW 01:38:28 56° WSW 01:44:00 10° SSE visible
09 Jul 2.5 01:18:51 10° NW 01:24:27 58° WSW 01:29:59 10° SSE visible
09 Jul 4.0 03:04:08 10° WNW 03:07:34 16° W 03:10:48 10° SW visible
10 Jul 2.5 01:04:49 10° NW 01:10:25 59° WSW 01:15:58 10° SSE visible
10 Jul 4.0 02:50:04 10° WNW 02:53:34 16° W 02:56:53 10° SW visible
11 Jul 2.5 00:50:46 10° NW 00:56:24 60° WSW 01:01:58 10° SSE visible
11 Jul 4.0 02:35:58 10° WNW 02:39:33 17° W 02:42:58 10° SW visible
12 Jul 4.0 02:21:53 10° WNW 02:25:33 17° W 02:29:02 10° SW visible
13 Jul 4.0 02:07:49 10° WNW 02:11:32 18° W 02:15:06 10° SW visible
14 Jul 4.0 01:53:44 10° WNW 01:57:33 18° W 02:01:10 10° SW visible
15 Jul 4.0 01:39:40 10° WNW 01:43:32 19° WSW 01:47:14 10° SW visible
16 Jul 4.0 01:25:36 10° WNW 01:29:31 19° WSW 01:33:18 10° SW visible
